Trenton, NJ

11:54 AM EDT on August 19, 2017 (GMT -0400)
Trenton Mercer

Weather History for KTTN - May, 2013

Change the Weather History Date:

Sunday, May 19, 2013

  Actual Average Record
Temperature  
Mean Temperature 58 °F 62 °F  
Max Temperature 60 °F 73 °F 96 °F (1962)
Min Temperature 55 °F 51 °F 37 °F (2002)
Degree Days  
Heating Degree Days 7 4  
Month to date heating degree days 131 128  
Since 1 July heating degree days 4905 5096  
Cooling Degree Days 0 2  
Month to date cooling degree days 9 21  
Year to date cooling degree days 23 29  
Growing Degree Days 8 (Base 50)    
Moisture  
Dew Point 56 °F    
Average Humidity 95    
Maximum Humidity 100    
Minimum Humidity 90    
Precipitation  
Precipitation 0.18 in 0.15 in 4.20 in (1900)
Month to date precipitation 2.18 2.22  
Year to date precipitation 11.66 15.37  
Sea Level Pressure  
Sea Level Pressure 30.21 in    
Wind  
Wind Speed 6 mph (SE)    
Max Wind Speed 12 mph    
Max Gust Speed 15 mph    
Visibility 3 miles    
Events Fog , Rain    
T = Trace of Precipitation, MM = Missing Value Source: NWS Daily Summary

Daily Weather History Graph

Daily Weather History Graph

Search for Another Location

Airport or City:

Trip Planner

Search our weather history database for the weather conditions in past years. The results will help you decide how hot, cold, wet, or windy it might be!

Date:

Astronomy

May. 19, 2013 Rise Set
Actual Time 5:39 AM EDT 8:12 PM EDT
Civil Twilight 5:08 AM EDT 8:43 PM EDT
Nautical Twilight 4:29 AM EDT 9:22 PM EDT
Astronomical Twilight 3:46 AM EDT 10:06 PM EDT
Moon 2:13 PM EDT 2:02 AM EDT
Length of Visible Light 15h 35m
Length of Day
14h 32m
Waxing Gibbous, 65% of the Moon is Illuminated
May 19
Waxing Gibbous
May 25
Full
May 31
Last Quarter
Jun 8
New
Jun 16
First Quarter

Hourly Weather History & Observations

Time (EDT) Temp. Dew Point Humidity Pressure Visibility Wind Dir Wind Speed Gust Speed Precip Events Conditions
12:15 AM 57.2 °F 53.6 °F 88% 30.28 in 7.0 mi SSE 8.1 mph - 0.00 in Rain Light Rain
12:53 AM 57.0 °F 54.0 °F 89% 30.26 in 9.0 mi SSE 9.2 mph - 0.01 in   Overcast
1:53 AM 55.9 °F 54.0 °F 93% 30.25 in 5.0 mi SSE 8.1 mph - 0.02 in Rain Light Rain
2:53 AM 57.0 °F 55.0 °F 93% 30.23 in 8.0 mi SSE 8.1 mph - 0.02 in   Overcast
3:53 AM 55.9 °F 55.0 °F 97% 30.23 in 10.0 mi SE 6.9 mph - N/A   Overcast
4:53 AM 55.9 °F 54.0 °F 93% 30.23 in 10.0 mi SE 4.6 mph - N/A   Overcast
6:23 AM 55.4 °F 53.6 °F 94% 30.26 in 2.0 mi ESE 5.8 mph - 0.01 in Rain Light Rain
6:36 AM 55.4 °F 53.6 °F 94% 30.26 in 3.0 mi SE 6.9 mph - 0.01 in Rain Light Rain
6:53 AM 55.9 °F 54.0 °F 93% 30.24 in 3.0 mi SE 5.8 mph - 0.02 in Rain Light Rain
7:13 AM 55.4 °F 53.6 °F 94% 30.25 in 4.0 mi SE 5.8 mph - 0.00 in Rain Light Rain
8:53 AM 57.0 °F 55.0 °F 93% 30.26 in 4.0 mi SE 4.6 mph - 0.00 in Rain Light Rain
9:08 AM 57.2 °F 55.4 °F 94% 30.27 in 2.5 mi SE 5.8 mph - 0.01 in Rain Light Rain
9:49 AM 57.2 °F 55.4 °F 94% 30.27 in 3.0 mi SE 8.1 mph - 0.05 in Rain Light Rain
9:53 AM 57.9 °F 55.9 °F 93% 30.26 in 3.0 mi SE 6.9 mph - 0.05 in Rain Light Rain
10:38 AM 59.0 °F 57.2 °F 94% 30.26 in 2.0 mi SSE 9.2 mph - 0.01 in   Overcast
10:53 AM 59.0 °F 57.0 °F 93% 30.25 in 3.0 mi SSE 6.9 mph - 0.01 in   Overcast
11:53 AM 60.1 °F 57.0 °F 90% 30.25 in 10.0 mi SSE 6.9 mph - N/A   Overcast
12:23 PM 60.8 °F 57.2 °F 88% 30.25 in 2.0 mi SE 9.2 mph - 0.00 in Rain Light Rain
12:48 PM 60.8 °F 57.2 °F 88% 30.24 in 1.8 mi SE 8.1 mph - 0.01 in Rain Light Rain
12:53 PM 60.1 °F 57.9 °F 93% 30.23 in 1.8 mi SE 8.1 mph - 0.01 in Rain Light Rain
1:03 PM 60.8 °F 57.2 °F 88% 30.24 in 2.0 mi SE 6.9 mph - 0.00 in Rain Light Rain
1:45 PM 60.8 °F 57.2 °F 88% 30.23 in 2.0 mi SE 6.9 mph - 0.01 in Rain Light Rain
1:53 PM 60.1 °F 57.9 °F 93% 30.21 in 2.0 mi SE 6.9 mph - 0.01 in Rain Light Rain
2:12 PM 60.8 °F 57.2 °F 88% 30.22 in 3.0 mi SE 6.9 mph - 0.00 in   Overcast
2:33 PM 59.0 °F 57.2 °F 94% 30.22 in 2.5 mi ESE 5.8 mph - 0.00 in   Overcast
2:40 PM 59.0 °F 57.2 °F 94% 30.22 in 2.5 mi SE 5.8 mph - 0.00 in   Overcast
3:17 PM 60.8 °F 57.2 °F 88% 30.20 in 1.8 mi ESE 6.9 mph - 0.00 in Rain Light Rain
3:45 PM 60.8 °F 57.2 °F 88% 30.19 in 2.5 mi SE 6.9 mph - 0.02 in Rain Light Rain
3:53 PM 60.1 °F 57.9 °F 93% 30.17 in 2.5 mi SE 6.9 mph - 0.02 in   Overcast
4:37 PM 60.8 °F 57.2 °F 88% 30.18 in 1.8 mi SE 6.9 mph - N/A   Overcast
4:53 PM 60.1 °F 59.0 °F 96% 30.16 in 1.8 mi SE 6.9 mph - N/A   Overcast
5:53 PM 60.1 °F 57.9 °F 93% 30.16 in 1.8 mi ESE 6.9 mph - 0.01 in   Overcast
6:01 PM 60.8 °F 57.2 °F 88% 30.17 in 2.0 mi ESE 5.8 mph - N/A   Overcast
6:46 PM 60.8 °F 57.2 °F 88% 30.18 in 1.8 mi East 4.6 mph - N/A   Overcast
6:53 PM 60.1 °F 57.9 °F 93% 30.16 in 1.5 mi East 5.8 mph - N/A   Overcast
7:22 PM 60.8 °F 57.2 °F 88% 30.18 in 2.0 mi East 6.9 mph - N/A   Overcast
7:53 PM 59.0 °F 57.9 °F 96% 30.16 in 1.8 mi East 8.1 mph - N/A   Overcast
8:02 PM 59.0 °F 57.2 °F 94% 30.17 in 2.0 mi East 8.1 mph - N/A   Overcast
8:37 PM 59.0 °F 57.2 °F 94% 30.16 in 1.8 mi East 5.8 mph - N/A   Overcast
8:53 PM 59.0 °F 57.0 °F 93% 30.15 in 1.5 mi East 6.9 mph - N/A   Overcast
9:23 PM 57.2 °F 57.2 °F 100% 30.16 in 0.8 mi SE 5.8 mph - N/A   Mist
9:53 PM 57.9 °F 57.9 °F 100% 30.15 in 0.5 mi ESE 3.5 mph - N/A Fog Fog
10:53 PM 59.0 °F 57.9 °F 96% 30.16 in 0.2 mi Calm Calm - N/A Fog Fog